TimePST,TemperatureF,Dew PointF,Humidity,Sea Level PressureIn,VisibilityMPH,Wind Direction,Wind SpeedMPH,Gust SpeedMPH,PrecipitationIn,Events,Conditions,WindDirDegrees,DateUTC
12:54 AM,42.1,41.0,96,30.24,5.0,NNE,8.1,-,N/A,,Partly Cloudy,20,2012-11-25 08:54:00
12:59 AM,42.8,42.8,100,30.24,2.0,NNE,10.4,-,N/A,,Mostly Cloudy,20,2012-11-25 08:59:00
1:02 AM,42.8,42.8,100,30.24,1.2,NNE,9.2,-,N/A,,Mostly Cloudy,20,2012-11-25 09:02:00
1:06 AM,42.8,42.8,100,30.24,0.8,NNE,9.2,-,N/A,,Mist,20,2012-11-25 09:06:00
1:25 AM,42.8,42.8,100,30.24,1.5,NNE,8.1,-,N/A,,Overcast,20,2012-11-25 09:25:00
1:30 AM,42.8,42.8,100,30.24,3.0,NNE,8.1,-,N/A,,Overcast,20,2012-11-25 09:30:00
1:50 AM,42.8,42.8,100,30.24,6.0,North,10.4,-,N/A,,Overcast,10,2012-11-25 09:50:00
1:54 AM,43.0,43.0,100,30.25,6.0,NNE,10.4,-,N/A,,Overcast,20,2012-11-25 09:54:00
2:14 AM,42.8,42.8,100,30.24,2.5,NNE,11.5,-,N/A,,Overcast,20,2012-11-25 10:14:00
2:25 AM,42.8,42.8,100,30.24,1.2,North,10.4,-,N/A,,Overcast,360,2012-11-25 10:25:00
2:36 AM,42.8,42.8,100,30.25,0.8,North,9.2,-,N/A,,Mist,350,2012-11-25 10:36:00
2:46 AM,42.8,42.8,100,30.25,1.0,North,10.4,-,N/A,,Mist,360,2012-11-25 10:46:00
2:54 AM,42.1,42.1,100,30.25,0.8,North,10.4,-,N/A,,Mist,10,2012-11-25 10:54:00
3:34 AM,42.8,41.0,93,30.25,1.2,North,11.5,-,N/A,,Overcast,350,2012-11-25 11:34:00
3:44 AM,42.8,41.0,93,30.25,0.8,North,11.5,-,N/A,,Mist,360,2012-11-25 11:44:00
3:54 AM,42.1,42.1,100,30.25,0.5,North,9.2,-,N/A,Fog,Fog,360,2012-11-25 11:54:00
4:16 AM,42.8,42.8,100,30.24,1.0,North,8.1,-,N/A,,Mist,360,2012-11-25 12:16:00
4:28 AM,42.8,42.8,100,30.24,2.0,North,8.1,-,N/A,,Overcast,10,2012-11-25 12:28:00
4:40 AM,42.8,42.8,100,30.24,5.0,North,8.1,-,N/A,,Overcast,10,2012-11-25 12:40:00
4:54 AM,42.1,42.1,100,30.25,8.0,North,9.2,-,N/A,,Overcast,360,2012-11-25 12:54:00
5:54 AM,42.1,41.0,96,30.26,9.0,North,9.2,-,N/A,,Overcast,360,2012-11-25 13:54:00
6:54 AM,41.0,41.0,100,30.25,6.0,North,9.2,-,N/A,,Overcast,350,2012-11-25 14:54:00
7:54 AM,41.0,41.0,100,30.26,7.0,North,11.5,-,N/A,,Overcast,350,2012-11-25 15:54:00
8:54 AM,42.1,39.9,92,30.26,7.0,North,11.5,-,N/A,,Overcast,360,2012-11-25 16:54:00
9:54 AM,42.1,39.9,92,30.25,5.0,North,11.5,-,N/A,,Overcast,360,2012-11-25 17:54:00
10:54 AM,42.1,39.0,89,30.25,5.0,North,10.4,-,N/A,,Overcast,10,2012-11-25 18:54:00
11:54 AM,42.1,39.0,89,30.23,6.0,NNE,12.7,-,N/A,,Overcast,20,2012-11-25 19:54:00
12:54 PM,42.1,39.0,89,30.22,9.0,North,11.5,-,N/A,,Overcast,10,2012-11-25 20:54:00
1:14 PM,42.8,39.2,87,30.20,10.0,NNE,13.8,-,N/A,,Overcast,20,2012-11-25 21:14:00
1:54 PM,43.0,39.0,86,30.21,10.0,North,12.7,-,N/A,,Overcast,10,2012-11-25 21:54:00
2:54 PM,43.0,37.9,82,30.20,10.0,North,11.5,-,N/A,,Overcast,10,2012-11-25 22:54:00
3:54 PM,42.1,37.9,85,30.17,10.0,NNE,12.7,-,N/A,,Overcast,20,2012-11-25 23:54:00
4:54 PM,42.1,37.9,85,30.15,10.0,NNE,10.4,-,N/A,,Overcast,20,2012-11-26 00:54:00
5:54 PM,41.0,37.9,89,30.13,10.0,North,10.4,-,N/A,,Overcast,10,2012-11-26 01:54:00
6:54 PM,41.0,39.0,93,30.12,10.0,North,9.2,-,N/A,,Overcast,10,2012-11-26 02:54:00
7:50 PM,41.0,39.2,93,30.11,10.0,North,8.1,-,N/A,,Overcast,10,2012-11-26 03:50:00
7:54 PM,41.0,39.0,93,30.12,10.0,North,9.2,-,N/A,,Overcast,360,2012-11-26 03:54:00
8:54 PM,42.1,39.9,92,30.12,10.0,North,10.4,-,N/A,,Overcast,10,2012-11-26 04:54:00
9:54 PM,42.1,39.0,89,30.10,10.0,NE,9.2,-,N/A,,Overcast,40,2012-11-26 05:54:00
10:54 PM,41.0,39.0,93,30.09,10.0,NNE,5.8,-,N/A,,Overcast,30,2012-11-26 06:54:00
11:54 PM,41.0,37.9,89,30.10,10.0,NNE,5.8,-,N/A,,Overcast,20,2012-11-26 07:54:00